Cayuga Lake Weather Center

Moon Phase Calendar



Cayuga Lake Water Level
Online Cameras

 


      

Current Conditions in Hayt Corners
3/4/2024 3:52:26 AM

42°F
Feels Like 37
Clouds
Humidity
96%
Pressure
30.24"
Wind
7.7 mph (SSE)
Dew Point
41°F
UV Index
0/10 (Low)
Visibility
6 mi

Hourly Forecast

Date & Time Mon, Mar 4
3:00 AM
Mon, Mar 4
4:00 AM
Mon, Mar 4
5:00 AM
Mon, Mar 4
6:00 AM
Mon, Mar 4
7:00 AM
Mon, Mar 4
8:00 AM
Mon, Mar 4
9:00 AM
Mon, Mar 4
10:00 AM
Mon, Mar 4
11:00 AM
Mon, Mar 4
12:00 PM
Mon, Mar 4
1:00 PM
Mon, Mar 4
2:00 PM
Mon, Mar 4
3:00 PM
Mon, Mar 4
4:00 PM
Mon, Mar 4
5:00 PM
Mon, Mar 4
6:00 PM
Mon, Mar 4
7:00 PM
Mon, Mar 4
8:00 PM
Mon, Mar 4
9:00 PM
Mon, Mar 4
10:00 PM
Mon, Mar 4
11:00 PM
Tue, Mar 5
12:00 AM
Tue, Mar 5
1:00 AM
Tue, Mar 5
2:00 AM
Tue, Mar 5
3:00 AM
Tue, Mar 5
4:00 AM
Tue, Mar 5
5:00 AM
Tue, Mar 5
6:00 AM
Tue, Mar 5
7:00 AM
Tue, Mar 5
8:00 AM
Tue, Mar 5
9:00 AM
Tue, Mar 5
10:00 AM
Tue, Mar 5
11:00 AM
Tue, Mar 5
12:00 PM
Tue, Mar 5
1:00 PM
Tue, Mar 5
2:00 PM
Tue, Mar 5
3:00 PM
Tue, Mar 5
4:00 PM
Tue, Mar 5
5:00 PM
Tue, Mar 5
6:00 PM
Tue, Mar 5
7:00 PM
Tue, Mar 5
8:00 PM
Tue, Mar 5
9:00 PM
Tue, Mar 5
10:00 PM
Tue, Mar 5
11:00 PM
Wed, Mar 6
12:00 AM
Wed, Mar 6
1:00 AM
Wed, Mar 6
2:00 AM
Condition
Clouds

Clouds

Clouds

Clouds

Clouds

Clouds

Clouds

Clouds

Clouds

Clouds

Clouds

Clouds

Clouds

Clouds

Clouds

Clouds

Clouds

Clouds

Clouds

Clouds

Clouds

Clouds

Clouds

Clouds

Clouds

Clouds

Clouds

Clouds

Clouds

Clouds

Clouds

Clouds

Clouds

Rain

Clouds

Clouds

Clouds

Clouds

Clouds

Clouds

Clouds

Clear

Clear

Clear

Clouds

Clouds

Rain

Rain
Temperature 42°F42°F42°F43°F43°F46°F52°F56°F59°F62°F64°F65°F65°F64°F61°F58°F57°F57°F55°F54°F52°F51°F50°F49°F48°F48°F48°F48°F48°F49°F50°F51°F53°F54°F53°F54°F54°F54°F53°F50°F48°F48°F47°F48°F48°F48°F49°F49°F
Feels Like 38°F37°F38°F38°F38°F41°F51°F55°F58°F61°F63°F64°F64°F63°F60°F56°F56°F55°F54°F53°F51°F49°F44°F43°F42°F42°F43°F42°F42°F44°F49°F50°F52°F52°F52°F53°F53°F53°F51°F45°F43°F43°F43°F43°F43°F44°F45°F45°F
Cloudiness 22%24%27%32%33%20%15%26%31%34%38%64%45%49%43%48%52%46%64%74%80%83%86%100%100%100%100%100%100%100%100%100%100%100%100%100%100%100%100%100%84%4%5%10%32%41%51%100%
Visibility 6 mi6 mi6 mi6 mi6 mi6 mi6 mi6 mi6 mi6 mi6 mi6 mi6 mi6 mi6 mi6 mi6 mi6 mi6 mi6 mi6 mi6 mi6 mi6 mi6 mi6 mi6 mi6 mi6 mi6 mi6 mi6 mi6 mi6 mi6 mi6 mi6 mi6 mi6 mi6 mi6 mi6 mi6 mi6 mi6 mi6 mi6 mi6 mi
Precipitation 0%0%0%0%0%0%0%0%0%0%0%0%0%0%0%0%0%0%0%0%0%0%0%0%0%0%0%0%1%15%16%17%31%39%39%29%25%24%20%19%15%0%0%0%6%6%26%50%
Humidity 95%96%95%94%92%88%79%73%70%66%62%59%61%64%69%72%71%72%76%82%84%86%87%87%86%85%83%86%87%86%84%83%81%81%81%80%80%80%84%90%93%93%93%93%92%93%93%92%
Dew Point 41°F41°F41°F41°F41°F43°F45°F47°F48°F49°F50°F50°F50°F50°F49°F48°F47°F46°F47°F47°F46°F46°F45°F44°F43°F42°F42°F42°F43°F44°F45°F45°F46°F47°F47°F47°F47°F47°F47°F46°F45°F44°F44°F45°F45°F45°F46°F46°F
Pressure 30.24"30.24"30.24"30.24"30.24"30.24"30.24"30.24"30.24"30.21"30.18"30.18"30.15"30.15"30.18"30.18"30.21"30.21"30.21"30.21"30.21"30.18"30.18"30.18"30.15"30.15"30.15"30.15"30.12"30.12"30.12"30.09"30.06"30.03"30"29.97"29.97"29.94"29.94"29.97"29.97"29.97"29.97"29.97"29.94"29.94"29.94"29.94"
Wind Speed 6.8 mph7.7 mph7.5 mph8.4 mph9.2 mph10.5 mph12.4 mph14.4 mph15.2 mph15 mph14.5 mph14 mph13.6 mph13.8 mph15.7 mph15.4 mph14.6 mph13.8 mph13.7 mph14 mph14.9 mph15.1 mph15 mph14.7 mph14.2 mph15.1 mph14.1 mph13 mph12.1 mph12.5 mph12.2 mph13 mph13.6 mph12.9 mph11.6 mph11.5 mph10.8 mph11 mph10.4 mph10.3 mph10.3 mph10.8 mph10.5 mph11 mph10.9 mph10.2 mph9.2 mph9.4 mph
Wind
Direction
152°
SSE
151°
SSE
151°
SSE
151°
SSE
150°
SSE
153°
SSE
161°
SSE
170°
S
175°
S
177°
S
177°
S
179°
S
176°
S
173°
S
175°
S
175°
S
175°
S
173°
S
164°
SSE
158°
SSE
160°
SSE
161°
SSE
164°
SSE
167°
SSE
165°
SSE
164°
SSE
167°
SSE
165°
SSE
162°
SSE
161°
SSE
161°
SSE
158°
SSE
161°
SSE
160°
SSE
164°
SSE
159°
SSE
165°
SSE
158°
SSE
150°
SSE
152°
SSE
149°
SSE
158°
SSE
154°
SSE
159°
SSE
162°
SSE
167°
SSE
172°
S
174°
S

Daily Forecast

Date High Low Precip. Humidity
Today
Mar 4

Clouds
65 °F
42 °F
0%
66%
Tuesday
Mar 5

Rain
54 °F
47 °F
39%
81%
Wednesday
Mar 6

Rain
58 °F
40 °F
100%
87%
Thursday
Mar 7

Clouds
51 °F
36 °F
21%
56%
Friday
Mar 8

Rain
50 °F
34 °F
75%
59%
Saturday
Mar 9

Rain
45 °F
37 °F
100%
88%
Sunday
Mar 10

Snow
42 °F
33 °F
34%
61%
Monday
Mar 11

Snow
36 °F
31 °F
57%
69%
Tuesday
Mar 12

Snow
40 °F
31 °F
73%
78%
Wednesday
Mar 13

Clear
50 °F
31 °F
0%
61%
Thursday
Mar 14

Clouds
58 °F
35 °F
0%
49%
Friday
Mar 15

Rain
57 °F
45 °F
64%
74%
Saturday
Mar 16

Rain
59 °F
46 °F
100%
80%
Sunday
Mar 17

Rain
57 °F
37 °F
100%
94%
Monday
Mar 18

Snow
38 °F
33 °F
100%
81%
Tuesday
Mar 19

Snow
41 °F
33 °F
84%
76%

Temperature 8-14 Day Outlook



Precipitation 8-14 Day Outlook




Quick Links
Cayuga Lake News
Cayuga Lake Photos
Cayuga Lake Videos




About Us
Contact Us
Site Map
Search Site
Advertise With Us
   
Cayuga.USLakes.info
THE CAYUGA LAKE WEBSITE

Copyright 2024, Lakes Online
Privacy    |    Legal